AFR3 KJFK-LFPG

Flight info

Callsign AFR3
Flight time 6h 26m
Altitude 35000
Route HAPIE DCT YAHOO DCT KANNI N139A PORTI/M084F350 DCT 47N050W 49N040W 51N030W 52N020W DCT LIMRI/N0480F350 DCT XETBO/M084F370 DCT ARKIL/N0485F370 DCT ANNET UM25 INGOR/N0483F280 UM25 LUKIP
Aircraft B77W/H-SDE1E2E3FGHIJ2J3J4J5M1RWXY/LB1D1

Departure

Time 2026-05-04 17:07
Airport John F. Kennedy International Airport (KJFK)

Arrival

Time 2026-05-04 23:33
Airport Charles de Gaulle International Airport (LFPG)
Time Latitude Longitude Altitude Speed Heading
2026-05-04 16:34 40.64254 -73.77948 20 ft 0 kts 30°
2026-05-04 16:52 40.64242 -73.77957 24 ft 4 kts 33°
2026-05-04 16:52 40.64220 -73.77977 23 ft 4 kts 38°
2026-05-04 16:53 40.64192 -73.78015 23 ft 3 kts 59°
2026-05-04 16:53 40.64186 -73.78092 25 ft 2 kts 108°
2026-05-04 16:54 40.64190 -73.78106 24 ft 2 kts 111°
2026-05-04 16:55 40.64195 -73.78122 25 ft 0 kts 112°
2026-05-04 16:56 40.64194 -73.78120 24 ft 2 kts 112°
2026-05-04 16:57 40.64161 -73.78061 22 ft 9 kts 141°
2026-05-04 16:57 40.64052 -73.77974 22 ft 9 kts 153°
2026-05-04 16:58 40.63977 -73.77946 20 ft 10 kts 175°
2026-05-04 16:58 40.63874 -73.77932 20 ft 20 kts 174°
2026-05-04 16:59 40.63675 -73.77900 21 ft 9 kts 173°
2026-05-04 17:00 40.63611 -73.77887 21 ft 0 kts 161°
2026-05-04 17:00 40.63610 -73.77886 21 ft 1 kts 161°
2026-05-04 17:01 40.63523 -73.77752 21 ft 13 kts 110°
2026-05-04 17:01 40.63653 -73.77593 21 ft 15 kts 31°
2026-05-04 17:02 40.63854 -73.77434 23 ft 18 kts 31°
2026-05-04 17:02 40.64066 -73.77268 23 ft 18 kts 30°
2026-05-04 17:03 40.64180 -73.77181 25 ft 20 kts 30°
2026-05-04 17:03 40.64304 -73.77085 22 ft 21 kts 32°
2026-05-04 17:03 40.64557 -73.76950 21 ft 19 kts 31°
2026-05-04 17:04 40.64788 -73.76769 29 ft 20 kts 31°
2026-05-04 17:04 40.65051 -73.76565 20 ft 15 kts 30°
2026-05-04 17:05 40.65094 -73.76470 20 ft 0 kts 113°
2026-05-04 17:06 40.65074 -73.76419 20 ft 9 kts 119°
2026-05-04 17:06 40.65035 -73.76363 20 ft 8 kts 154°
2026-05-04 17:07 40.64928 -73.76432 20 ft 28 kts 212°
2026-05-04 17:07 40.64683 -73.76622 25 ft 95 kts 210°
2026-05-04 17:07 40.63439 -73.77591 250 ft 201 kts 210°
2026-05-04 17:07 40.62218 -73.78551 1714 ft 212 kts 214°
2026-05-04 17:08 40.60816 -73.79480 2539 ft 239 kts 212°
2026-05-04 17:08 40.57738 -73.81535 4178 ft 259 kts 212°
2026-05-04 17:08 40.56103 -73.82608 5059 ft 264 kts 212°
2026-05-04 17:09 40.54445 -73.83691 5909 ft 269 kts 211°
2026-05-04 17:09 40.52756 -73.84797 6765 ft 273 kts 211°
2026-05-04 17:09 40.50971 -73.85707 7429 ft 283 kts 192°
2026-05-04 17:10 40.47365 -73.83769 8920 ft 305 kts 125°
2026-05-04 17:10 40.47195 -73.75750 10565 ft 325 kts 87°
2026-05-04 17:11 40.46891 -73.72706 10743 ft 348 kts 99°
2026-05-04 17:11 40.46431 -73.69516 10960 ft 373 kts 97°
2026-05-04 17:11 40.45655 -73.62471 12086 ft 400 kts 95°
2026-05-04 17:12 40.45278 -73.58814 12914 ft 406 kts 96°
2026-05-04 17:12 40.44500 -73.51369 14608 ft 416 kts 96°
2026-05-04 17:13 40.43274 -73.39915 16990 ft 430 kts 97°
2026-05-04 17:14 40.41989 -73.28091 19134 ft 445 kts 97°
2026-05-04 17:14 40.41547 -73.24043 19787 ft 450 kts 97°
2026-05-04 17:14 40.40798 -73.17226 20851 ft 458 kts 98°
2026-05-04 17:15 40.40339 -73.13053 21479 ft 463 kts 98°
2026-05-04 17:15 40.39280 -73.03218 22881 ft 473 kts 95°
2026-05-04 17:16 40.39412 -72.95951 23775 ft 480 kts 81°
2026-05-04 17:16 40.40376 -72.90280 24427 ft 483 kts 71°
2026-05-04 17:18 40.49037 -72.52262 28234 ft 517 kts 72°
2026-05-04 17:19 40.51063 -72.43121 28986 ft 524 kts 72°
2026-05-04 17:19 40.53103 -72.33882 29628 ft 531 kts 72°
2026-05-04 17:20 40.55141 -72.24616 30437 ft 531 kts 73°
2026-05-04 17:20 40.57191 -72.15253 31109 ft 533 kts 73°
2026-05-04 17:20 40.58215 -72.10565 31439 ft 533 kts 73°
2026-05-04 17:21 40.60263 -72.01154 32077 ft 535 kts 73°
2026-05-04 17:21 40.62305 -71.91726 32731 ft 536 kts 73°
2026-05-04 17:22 40.63327 -71.86995 33038 ft 537 kts 73°
2026-05-04 17:22 40.64346 -71.82269 33330 ft 538 kts 74°
2026-05-04 17:23 40.67400 -71.68029 34198 ft 539 kts 74°
2026-05-04 17:23 40.68416 -71.63273 34437 ft 539 kts 74°
2026-05-04 17:23 40.70444 -71.53747 34896 ft 540 kts 74°
2026-05-04 17:24 40.71459 -71.48964 34962 ft 544 kts 74°
2026-05-04 17:25 40.75489 -71.29859 35012 ft 538 kts 75°
2026-05-04 17:26 40.79462 -71.10856 35025 ft 536 kts 75°
2026-05-04 17:27 40.84383 -70.87075 35027 ft 540 kts 75°
2026-05-04 17:28 40.88319 -70.67857 35028 ft 542 kts 75°
2026-05-04 17:29 40.94161 -70.38996 35020 ft 542 kts 76°
2026-05-04 17:31 40.98974 -70.14910 35005 ft 540 kts 76°
2026-05-04 17:32 41.03723 -69.90861 35010 ft 540 kts 76°
2026-05-04 17:33 41.06935 -69.76647 35003 ft 540 kts 65°
2026-05-04 17:33 41.08642 -69.72208 35010 ft 539 kts 59°
2026-05-04 17:34 41.17646 -69.56403 35011 ft 538 kts 49°
2026-05-04 17:35 41.29242 -69.36859 34997 ft 540 kts 50°
2026-05-04 17:36 41.33871 -69.28970 35002 ft 540 kts 50°
2026-05-04 17:36 41.38493 -69.21081 34995 ft 539 kts 50°
2026-05-04 17:37 41.43099 -69.13203 34995 ft 539 kts 50°
2026-05-04 17:37 41.47695 -69.05323 34995 ft 538 kts 51°
2026-05-04 17:38 41.52285 -68.97431 34983 ft 537 kts 51°
2026-05-04 17:38 41.56859 -68.89547 34979 ft 537 kts 51°
2026-05-04 17:39 41.63707 -68.77703 34979 ft 537 kts 51°
2026-05-04 17:39 41.68234 -68.69850 34988 ft 537 kts 51°
2026-05-04 17:40 41.72801 -68.61906 34993 ft 537 kts 51°
2026-05-04 17:40 41.77352 -68.53968 34965 ft 537 kts 51°
2026-05-04 17:41 41.81907 -68.46004 34979 ft 538 kts 51°
2026-05-04 17:41 41.86432 -68.38070 34982 ft 538 kts 51°
2026-05-04 17:42 41.90978 -68.30078 34963 ft 539 kts 51°
2026-05-04 17:42 41.95526 -68.22062 34979 ft 539 kts 51°
2026-05-04 17:43 42.00065 -68.14039 34965 ft 539 kts 50°
2026-05-04 17:43 42.04597 -68.06010 34955 ft 538 kts 50°
2026-05-04 17:44 42.09111 -67.97990 34958 ft 537 kts 50°
2026-05-04 17:44 42.13626 -67.89948 34965 ft 537 kts 50°
2026-05-04 17:45 42.18099 -67.81959 34952 ft 537 kts 50°
2026-05-04 17:45 42.22593 -67.73910 34952 ft 537 kts 50°
2026-05-04 17:46 42.27082 -67.65849 34946 ft 537 kts 50°
2026-05-04 17:46 42.31573 -67.57764 34944 ft 538 kts 50°
2026-05-04 17:47 42.36041 -67.49697 34942 ft 539 kts 51°
2026-05-04 17:47 42.40537 -67.41559 34942 ft 539 kts 51°
2026-05-04 17:48 42.45026 -67.33409 34942 ft 540 kts 51°
2026-05-04 17:48 42.49513 -67.25242 34938 ft 540 kts 51°
2026-05-04 17:49 42.53999 -67.17052 34932 ft 541 kts 51°
2026-05-04 17:49 42.58479 -67.08854 34934 ft 541 kts 51°
2026-05-04 17:50 42.62884 -67.00559 34924 ft 542 kts 56°
2026-05-04 17:50 42.66345 -66.91520 34935 ft 543 kts 65°
2026-05-04 17:51 42.69454 -66.82161 34921 ft 543 kts 64°
2026-05-04 17:51 42.72604 -66.72805 34933 ft 543 kts 64°
2026-05-04 17:52 42.75776 -66.63467 34923 ft 544 kts 64°
2026-05-04 17:52 42.78951 -66.54121 34924 ft 544 kts 64°
2026-05-04 17:53 42.82118 -66.44757 34923 ft 545 kts 64°
2026-05-04 17:53 42.85282 -66.35361 34920 ft 545 kts 64°
2026-05-04 17:54 42.87906 -66.27540 34923 ft 545 kts 64°
2026-05-04 17:54 42.91056 -66.18123 34923 ft 546 kts 64°
2026-05-04 17:55 42.94198 -66.08698 34920 ft 546 kts 65°
2026-05-04 17:55 42.97339 -65.99242 34914 ft 546 kts 65°
2026-05-04 17:56 43.00473 -65.89773 34917 ft 547 kts 65°
2026-05-04 17:56 43.03600 -65.80295 34914 ft 547 kts 65°
2026-05-04 17:57 43.06720 -65.70804 34917 ft 547 kts 65°
2026-05-04 17:57 43.09818 -65.61346 34914 ft 548 kts 65°
2026-05-04 17:58 43.12899 -65.51907 34913 ft 549 kts 65°
2026-05-04 17:58 43.16035 -65.42267 34922 ft 558 kts 65°
2026-05-04 17:59 43.19171 -65.32588 34899 ft 550 kts 65°
2026-05-04 18:00 43.23762 -65.18354 34909 ft 545 kts 65°
2026-05-04 18:00 43.26825 -65.08820 34906 ft 546 kts 65°
2026-05-04 18:01 43.29894 -64.99231 34909 ft 549 kts 65°
2026-05-04 18:01 43.32962 -64.89609 34906 ft 550 kts 65°
2026-05-04 18:02 43.37560 -64.75122 34896 ft 552 kts 65°
2026-05-04 18:02 43.40607 -64.65478 34893 ft 553 kts 66°
2026-05-04 18:03 43.43664 -64.55767 34891 ft 552 kts 66°
2026-05-04 18:03 43.46707 -64.46063 34890 ft 552 kts 66°
2026-05-04 18:04 43.49742 -64.36351 34888 ft 551 kts 66°
2026-05-04 18:05 43.54253 -64.21847 34881 ft 550 kts 66°
2026-05-04 18:05 43.57260 -64.12134 34889 ft 550 kts 66°
2026-05-04 18:06 43.61750 -63.97562 34885 ft 550 kts 66°
2026-05-04 18:06 43.64737 -63.87826 34886 ft 550 kts 66°
2026-05-04 18:07 43.67716 -63.78076 34877 ft 550 kts 66°
2026-05-04 18:07 43.70669 -63.68374 34876 ft 551 kts 66°
2026-05-04 18:08 43.73636 -63.58591 34874 ft 551 kts 66°
2026-05-04 18:08 43.76594 -63.48800 34873 ft 551 kts 66°
2026-05-04 18:09 43.82473 -63.29225 34863 ft 552 kts 66°
2026-05-04 18:10 43.85419 -63.19360 34863 ft 552 kts 66°
2026-05-04 18:10 43.88345 -63.09525 34863 ft 552 kts 66°
2026-05-04 18:11 43.91267 -62.99665 34854 ft 552 kts 66°
2026-05-04 18:11 43.94178 -62.89804 34855 ft 552 kts 67°
2026-05-04 18:12 43.97081 -62.79931 34850 ft 552 kts 67°
2026-05-04 18:12 43.99974 -62.70055 34847 ft 552 kts 67°
2026-05-04 18:13 44.02838 -62.60237 34841 ft 551 kts 67°
2026-05-04 18:14 44.07140 -62.45418 34836 ft 551 kts 67°
2026-05-04 18:14 44.09997 -62.35530 34827 ft 550 kts 67°
2026-05-04 18:15 44.15677 -62.15754 34824 ft 549 kts 67°
2026-05-04 18:16 44.18500 -62.05862 34823 ft 549 kts 68°
2026-05-04 18:16 44.21312 -61.95974 34817 ft 549 kts 68°
2026-05-04 18:17 44.25502 -61.81164 34813 ft 549 kts 68°
2026-05-04 18:18 44.29693 -61.66263 34807 ft 549 kts 68°
2026-05-04 18:18 44.32460 -61.56375 34806 ft 549 kts 68°
2026-05-04 18:19 44.36614 -61.41453 34800 ft 549 kts 68°
2026-05-04 18:19 44.39376 -61.31483 34790 ft 549 kts 68°
2026-05-04 18:20 44.42123 -61.21525 34791 ft 548 kts 68°
2026-05-04 18:20 44.44864 -61.11549 34784 ft 548 kts 68°
2026-05-04 18:21 44.47589 -61.01591 34780 ft 548 kts 68°
2026-05-04 18:21 44.50305 -60.91624 34777 ft 547 kts 69°
2026-05-04 18:22 44.52992 -60.81720 34776 ft 547 kts 69°
2026-05-04 18:22 44.55693 -60.71728 34775 ft 547 kts 69°
2026-05-04 18:23 44.58382 -60.61735 34774 ft 547 kts 69°
2026-05-04 18:23 44.61065 -60.51724 34762 ft 548 kts 69°
2026-05-04 18:24 44.63741 -60.41697 34768 ft 548 kts 69°
2026-05-04 18:24 44.66393 -60.31719 34764 ft 548 kts 69°
2026-05-04 18:25 44.69055 -60.21661 34754 ft 549 kts 69°
2026-05-04 18:25 44.71706 -60.11599 34755 ft 549 kts 69°
2026-05-04 18:26 44.74351 -60.01523 34762 ft 549 kts 69°
2026-05-04 18:26 44.76975 -59.91481 34748 ft 549 kts 70°
2026-05-04 18:27 44.79601 -59.81385 34739 ft 549 kts 70°
2026-05-04 18:27 44.82219 -59.71281 34749 ft 549 kts 70°
2026-05-04 18:28 44.84830 -59.61160 34746 ft 549 kts 70°
2026-05-04 18:28 44.87431 -59.51031 34737 ft 549 kts 70°
2026-05-04 18:29 44.90010 -59.40947 34729 ft 549 kts 70°
2026-05-04 18:29 44.92603 -59.30763 34733 ft 550 kts 70°
2026-05-04 18:30 44.96466 -59.15504 34729 ft 550 kts 70°
2026-05-04 18:31 44.99028 -59.05330 34725 ft 550 kts 70°
2026-05-04 18:31 45.01569 -58.95195 34730 ft 550 kts 70°
2026-05-04 18:32 45.04121 -58.84973 34721 ft 551 kts 70°
2026-05-04 18:32 45.06660 -58.74755 34723 ft 551 kts 71°
2026-05-04 18:33 45.09192 -58.64516 34718 ft 551 kts 71°
2026-05-04 18:33 45.11717 -58.54263 34713 ft 551 kts 71°
2026-05-04 18:34 45.14235 -58.43992 34711 ft 551 kts 71°
2026-05-04 18:34 45.16736 -58.33743 34714 ft 551 kts 71°
2026-05-04 18:35 45.19214 -58.23543 34710 ft 551 kts 71°
2026-05-04 18:35 45.21703 -58.13249 34710 ft 551 kts 71°
2026-05-04 18:36 45.24178 -58.02971 34704 ft 551 kts 71°
2026-05-04 18:36 45.26645 -57.92674 34712 ft 550 kts 71°
2026-05-04 18:37 45.29101 -57.82377 34702 ft 550 kts 72°
2026-05-04 18:37 45.31548 -57.72068 34700 ft 550 kts 72°
2026-05-04 18:38 45.33973 -57.61806 34696 ft 550 kts 72°
2026-05-04 18:38 45.36400 -57.51488 34695 ft 550 kts 72°
2026-05-04 18:39 45.38424 -57.42843 34692 ft 550 kts 72°
2026-05-04 18:39 45.40826 -57.32542 34705 ft 550 kts 72°
2026-05-04 18:40 45.43225 -57.22203 34698 ft 550 kts 72°
2026-05-04 18:40 45.45617 -57.11851 34686 ft 550 kts 72°
2026-05-04 18:41 45.47983 -57.01557 34690 ft 550 kts 72°
2026-05-04 18:41 45.50358 -56.91176 34696 ft 550 kts 73°
2026-05-04 18:42 45.52726 -56.80774 34699 ft 550 kts 73°
2026-05-04 18:42 45.55083 -56.70371 34674 ft 550 kts 73°
2026-05-04 18:43 45.57416 -56.60027 34674 ft 550 kts 73°
2026-05-04 18:43 45.59751 -56.49621 34690 ft 550 kts 73°
2026-05-04 18:44 45.62076 -56.39211 34688 ft 550 kts 73°
2026-05-04 18:44 45.64395 -56.28774 34678 ft 550 kts 73°
2026-05-04 18:45 45.66693 -56.18382 34669 ft 550 kts 73°
2026-05-04 18:45 45.68990 -56.07941 34680 ft 550 kts 73°
2026-05-04 18:46 45.71281 -55.97481 34679 ft 550 kts 74°
2026-05-04 18:46 45.73557 -55.87034 34679 ft 550 kts 74°
2026-05-04 18:47 45.75825 -55.76571 34680 ft 550 kts 74°
2026-05-04 18:47 45.78084 -55.66097 34674 ft 550 kts 74°
2026-05-04 18:48 45.80333 -55.55612 34675 ft 550 kts 74°
2026-05-04 18:48 45.82561 -55.45181 34677 ft 550 kts 74°
2026-05-04 18:49 45.84791 -55.34680 34678 ft 550 kts 75°
2026-05-04 18:49 45.87013 -55.24169 34677 ft 550 kts 75°
2026-05-04 18:50 45.89224 -55.13651 34677 ft 550 kts 75°
2026-05-04 18:50 45.91427 -55.03119 34676 ft 551 kts 75°
2026-05-04 18:51 45.93622 -54.92571 34675 ft 551 kts 75°
2026-05-04 18:51 45.95809 -54.82004 34677 ft 551 kts 75°
2026-05-04 18:52 45.97986 -54.71430 34681 ft 551 kts 75°
2026-05-04 18:52 46.00138 -54.60925 34680 ft 551 kts 75°
2026-05-04 18:53 46.02294 -54.50344 34683 ft 551 kts 76°
2026-05-04 18:53 46.04438 -54.39765 34680 ft 550 kts 76°
2026-05-04 18:54 46.06573 -54.29176 34682 ft 550 kts 76°
2026-05-04 18:54 46.08684 -54.18646 34685 ft 550 kts 76°
2026-05-04 18:55 46.10797 -54.08053 34682 ft 550 kts 76°
2026-05-04 18:55 46.13952 -53.92124 34679 ft 551 kts 76°
2026-05-04 18:56 46.16043 -53.81496 34681 ft 551 kts 76°
2026-05-04 18:56 46.18124 -53.70864 34680 ft 551 kts 76°
2026-05-04 18:57 46.20197 -53.60210 34683 ft 551 kts 77°
2026-05-04 18:57 46.22261 -53.49541 34682 ft 551 kts 77°
2026-05-04 18:58 46.24304 -53.38927 34681 ft 551 kts 77°
2026-05-04 18:58 46.26348 -53.28249 34688 ft 551 kts 77°
2026-05-04 18:59 46.28376 -53.17592 34686 ft 550 kts 77°
2026-05-04 18:59 46.30395 -53.06920 34685 ft 550 kts 77°
2026-05-04 19:00 46.32402 -52.96254 34688 ft 549 kts 77°
2026-05-04 19:00 46.34398 -52.85589 34691 ft 549 kts 77°
2026-05-04 19:01 46.36384 -52.74912 34687 ft 548 kts 77°
2026-05-04 19:01 46.38345 -52.64310 34688 ft 548 kts 78°
2026-05-04 19:02 46.40306 -52.53645 34694 ft 547 kts 78°
2026-05-04 19:02 46.42258 -52.42972 34707 ft 547 kts 78°
2026-05-04 19:03 46.44196 -52.32309 34713 ft 547 kts 78°
2026-05-04 19:03 46.46125 -52.21637 34726 ft 546 kts 78°
2026-05-04 19:04 46.48043 -52.10963 34726 ft 546 kts 78°
2026-05-04 19:04 46.49963 -52.00306 34730 ft 546 kts 77°
2026-05-04 19:05 46.52475 -51.89870 34729 ft 548 kts 71°
2026-05-04 19:05 46.55252 -51.79551 34741 ft 548 kts 71°
2026-05-04 19:06 46.57973 -51.69273 34736 ft 548 kts 72°
2026-05-04 19:06 46.60655 -51.58885 34737 ft 548 kts 72°
2026-05-04 19:07 46.63306 -51.48496 34744 ft 547 kts 72°
2026-05-04 19:07 46.65947 -51.38107 34748 ft 547 kts 72°
2026-05-04 19:08 46.68569 -51.27765 34748 ft 547 kts 72°
2026-05-04 19:08 46.71195 -51.17366 34753 ft 547 kts 73°
2026-05-04 19:09 46.73814 -51.06945 34753 ft 547 kts 73°
2026-05-04 19:09 46.76411 -50.96566 34755 ft 546 kts 73°
2026-05-04 19:10 46.79005 -50.86147 34757 ft 546 kts 73°
2026-05-04 19:10 46.81589 -50.75725 34764 ft 546 kts 73°
2026-05-04 19:11 46.84161 -50.65297 34776 ft 545 kts 73°
2026-05-04 19:11 46.86729 -50.54843 34769 ft 545 kts 73°
2026-05-04 19:12 46.90533 -50.39263 34774 ft 544 kts 74°
2026-05-04 19:13 46.93064 -50.28834 34778 ft 544 kts 74°
2026-05-04 19:13 46.95587 -50.18389 34780 ft 543 kts 74°
2026-05-04 19:14 46.98095 -50.07962 34780 ft 543 kts 75°
2026-05-04 19:14 47.00382 -49.98423 34780 ft 543 kts 74°
2026-05-04 19:15 47.02966 -49.88032 34787 ft 543 kts 73°
2026-05-04 19:15 47.05601 -49.77639 34793 ft 543 kts 73°
2026-05-04 19:16 47.07993 -49.68136 34797 ft 543 kts 74°
2026-05-04 19:16 47.09297 -49.62910 34906 ft 545 kts 74°
2026-05-04 19:16 47.10579 -49.57744 35183 ft 544 kts 74°
2026-05-04 19:16 47.11869 -49.52535 35521 ft 542 kts 74°
2026-05-04 19:17 47.13153 -49.47341 35845 ft 540 kts 74°
2026-05-04 19:17 47.14430 -49.42156 36137 ft 539 kts 74°
2026-05-04 19:17 47.15700 -49.36988 36391 ft 539 kts 74°
2026-05-04 19:17 47.16971 -49.31801 36632 ft 539 kts 75°
2026-05-04 19:18 47.18240 -49.26613 36736 ft 540 kts 75°
2026-05-04 19:18 47.20781 -49.16192 36812 ft 540 kts 75°
2026-05-04 19:19 47.23304 -49.05802 36811 ft 538 kts 75°
2026-05-04 19:19 47.25795 -48.95499 36817 ft 536 kts 75°
2026-05-04 19:20 47.28281 -48.85161 36821 ft 535 kts 75°
2026-05-04 19:20 47.30757 -48.74816 36827 ft 535 kts 75°
2026-05-04 19:21 47.33220 -48.64480 36831 ft 535 kts 75°
2026-05-04 19:21 47.35678 -48.54114 36833 ft 535 kts 75°
2026-05-04 19:22 47.38122 -48.43756 36839 ft 535 kts 75°
2026-05-04 19:22 47.40563 -48.33365 36837 ft 535 kts 76°
2026-05-04 19:23 47.42975 -48.23050 36840 ft 535 kts 76°
2026-05-04 19:23 47.45392 -48.12661 36840 ft 535 kts 76°
2026-05-04 19:24 47.47805 -48.02242 36846 ft 534 kts 76°
2026-05-04 19:24 47.49799 -47.93593 36843 ft 534 kts 76°
2026-05-04 19:25 47.52185 -47.83197 36845 ft 533 kts 76°
2026-05-04 19:25 47.54563 -47.72787 36856 ft 532 kts 77°
2026-05-04 19:26 47.56908 -47.62468 36852 ft 531 kts 77°
2026-05-04 19:26 47.59255 -47.52094 36856 ft 530 kts 77°
2026-05-04 19:27 47.61585 -47.41742 36854 ft 528 kts 77°
2026-05-04 19:27 47.63885 -47.31474 36861 ft 527 kts 77°
2026-05-04 19:28 47.66187 -47.21144 36864 ft 526 kts 77°
2026-05-04 19:28 47.68476 -47.10827 36869 ft 526 kts 78°
2026-05-04 19:29 47.70752 -47.00512 36871 ft 525 kts 78°
2026-05-04 19:29 47.73017 -46.90198 36870 ft 525 kts 78°
2026-05-04 19:30 47.75258 -46.79941 36872 ft 524 kts 78°
2026-05-04 19:30 47.77501 -46.69627 36877 ft 524 kts 78°
2026-05-04 19:31 47.79736 -46.59298 36874 ft 523 kts 78°
2026-05-04 19:31 47.81940 -46.49065 36891 ft 522 kts 78°
2026-05-04 19:32 47.84148 -46.38759 36884 ft 522 kts 79°
2026-05-04 19:32 47.86342 -46.28462 36886 ft 521 kts 79°
2026-05-04 19:33 47.88524 -46.18175 36888 ft 520 kts 79°
2026-05-04 19:33 47.90681 -46.07950 36892 ft 520 kts 79°
2026-05-04 19:34 47.92840 -45.97670 36893 ft 519 kts 79°
2026-05-04 19:34 47.94988 -45.87385 36893 ft 519 kts 79°
2026-05-04 19:35 47.97125 -45.77100 36893 ft 518 kts 79°
2026-05-04 19:35 47.99251 -45.66819 36898 ft 518 kts 79°
2026-05-04 19:36 48.01363 -45.56549 36905 ft 517 kts 79°
2026-05-04 19:36 48.03458 -45.46312 36904 ft 517 kts 79°
2026-05-04 19:37 48.05551 -45.36031 36898 ft 516 kts 79°
2026-05-04 19:37 48.07631 -45.25763 36908 ft 515 kts 79°
2026-05-04 19:38 48.09690 -45.15540 36911 ft 515 kts 79°
2026-05-04 19:38 48.11747 -45.05274 36911 ft 515 kts 79°
2026-05-04 19:39 48.13797 -44.94993 36915 ft 514 kts 79°
2026-05-04 19:39 48.15836 -44.84716 36922 ft 514 kts 79°
2026-05-04 19:40 48.17863 -44.74438 36925 ft 514 kts 79°
2026-05-04 19:40 48.19878 -44.64168 36919 ft 513 kts 79°
2026-05-04 19:41 48.21869 -44.53969 36921 ft 512 kts 79°
2026-05-04 19:41 48.23861 -44.43707 36940 ft 512 kts 80°
2026-05-04 19:42 48.25849 -44.33408 36920 ft 514 kts 80°
2026-05-04 19:42 48.27826 -44.23118 36927 ft 512 kts 80°
2026-05-04 19:43 48.29791 -44.12837 36941 ft 511 kts 80°
2026-05-04 19:43 48.31727 -44.02642 36934 ft 510 kts 80°
2026-05-04 19:44 48.33667 -43.92376 36935 ft 510 kts 80°
2026-05-04 19:44 48.35595 -43.82111 36944 ft 510 kts 80°
2026-05-04 19:45 48.37516 -43.71833 36947 ft 510 kts 80°
2026-05-04 19:45 48.39428 -43.61546 36956 ft 510 kts 80°
2026-05-04 19:46 48.41318 -43.51321 36963 ft 511 kts 80°
2026-05-04 19:46 48.43217 -43.40987 36966 ft 512 kts 80°
2026-05-04 19:47 48.45108 -43.30637 36979 ft 512 kts 80°
2026-05-04 19:47 48.46992 -43.20274 36982 ft 513 kts 80°
2026-05-04 19:48 48.48869 -43.09884 36988 ft 513 kts 80°
2026-05-04 19:48 48.50725 -42.99561 36996 ft 513 kts 80°
2026-05-04 19:49 48.52583 -42.89156 36999 ft 513 kts 80°
2026-05-04 19:49 48.54432 -42.78753 37015 ft 513 kts 80°
2026-05-04 19:50 48.56268 -42.68352 37018 ft 512 kts 80°
2026-05-04 19:50 48.58094 -42.57954 37024 ft 511 kts 79°
2026-05-04 19:51 48.59907 -42.47566 37033 ft 511 kts 79°
2026-05-04 19:51 48.61709 -42.37179 37042 ft 511 kts 79°
2026-05-04 19:52 48.63502 -42.26780 37044 ft 511 kts 79°
2026-05-04 19:52 48.65286 -42.16380 37059 ft 511 kts 79°
2026-05-04 19:53 48.67060 -42.05970 37065 ft 511 kts 79°
2026-05-04 19:53 48.68829 -41.95526 37072 ft 511 kts 79°
2026-05-04 19:54 48.70574 -41.85163 37074 ft 511 kts 79°
2026-05-04 19:54 48.72323 -41.74714 37085 ft 511 kts 79°
2026-05-04 19:55 48.74061 -41.64271 37091 ft 511 kts 79°
2026-05-04 19:55 48.75792 -41.53802 37098 ft 511 kts 79°
2026-05-04 19:56 48.77508 -41.43355 37107 ft 511 kts 79°
2026-05-04 19:56 48.79219 -41.32883 37113 ft 511 kts 78°
2026-05-04 19:57 48.80906 -41.22484 37119 ft 511 kts 78°
2026-05-04 19:57 48.82599 -41.11989 37124 ft 511 kts 78°
2026-05-04 19:58 48.84279 -41.01506 37135 ft 512 kts 78°
2026-05-04 19:58 48.85954 -40.90988 37137 ft 512 kts 78°
2026-05-04 19:59 48.87621 -40.80453 37142 ft 513 kts 78°
2026-05-04 19:59 48.89281 -40.69899 37151 ft 514 kts 78°
2026-05-04 20:00 48.90931 -40.59331 37153 ft 514 kts 78°
2026-05-04 20:00 48.92577 -40.48730 37156 ft 515 kts 78°
2026-05-04 20:01 48.94200 -40.38203 37164 ft 515 kts 78°
2026-05-04 20:01 48.95826 -40.27587 37170 ft 515 kts 78°
2026-05-04 20:02 48.97441 -40.16968 37173 ft 515 kts 78°
2026-05-04 20:02 48.99048 -40.06344 37184 ft 514 kts 78°
2026-05-04 20:03 49.00935 -39.95816 37174 ft 515 kts 70°
2026-05-04 20:03 49.03544 -39.85648 37193 ft 515 kts 69°
2026-05-04 20:04 49.06153 -39.75471 37200 ft 516 kts 69°
2026-05-04 20:04 49.08725 -39.65247 37201 ft 517 kts 69°
2026-05-04 20:05 49.11274 -39.54985 37208 ft 518 kts 69°
2026-05-04 20:05 49.13801 -39.44746 37221 ft 519 kts 69°
2026-05-04 20:06 49.16345 -39.34403 37223 ft 520 kts 69°
2026-05-04 20:06 49.18888 -39.24020 37227 ft 521 kts 69°
2026-05-04 20:07 49.21424 -39.13619 37226 ft 521 kts 68°
2026-05-04 20:07 49.23930 -39.03292 37234 ft 521 kts 68°
2026-05-04 20:08 49.26442 -38.92893 37239 ft 520 kts 68°
2026-05-04 20:08 49.28942 -38.82491 37246 ft 519 kts 68°
2026-05-04 20:09 49.31424 -38.72117 37244 ft 518 kts 68°
2026-05-04 20:09 49.33890 -38.61757 37246 ft 517 kts 68°
2026-05-04 20:10 49.36341 -38.51419 37253 ft 516 kts 68°
2026-05-04 20:10 49.38769 -38.41121 37251 ft 515 kts 68°
2026-05-04 20:11 49.41200 -38.30767 37261 ft 515 kts 68°
2026-05-04 20:11 49.43215 -38.22144 37268 ft 515 kts 68°
2026-05-04 20:12 49.45630 -38.11766 37266 ft 516 kts 68°
2026-05-04 20:12 49.48040 -38.01356 37270 ft 516 kts 68°
2026-05-04 20:13 49.50440 -37.90943 37280 ft 517 kts 67°
2026-05-04 20:13 49.52833 -37.80507 37281 ft 517 kts 67°
2026-05-04 20:14 49.55221 -37.70041 37289 ft 518 kts 67°
2026-05-04 20:14 49.57602 -37.59554 37290 ft 518 kts 67°
2026-05-04 20:15 49.59975 -37.49052 37291 ft 518 kts 67°
2026-05-04 20:15 49.62334 -37.38556 37297 ft 518 kts 67°
2026-05-04 20:16 49.64687 -37.28036 37301 ft 518 kts 67°
2026-05-04 20:16 49.67015 -37.17579 37304 ft 518 kts 67°
2026-05-04 20:17 49.69351 -37.07030 37308 ft 518 kts 67°
2026-05-04 20:17 49.71677 -36.96472 37316 ft 518 kts 67°
2026-05-04 20:18 49.73976 -36.85983 37315 ft 518 kts 67°
2026-05-04 20:18 49.76276 -36.75436 37317 ft 517 kts 67°
2026-05-04 20:19 49.78567 -36.64881 37323 ft 517 kts 67°
2026-05-04 20:19 49.80845 -36.54323 37325 ft 516 kts 67°
2026-05-04 20:20 49.83110 -36.43774 37327 ft 516 kts 67°
2026-05-04 20:20 49.85364 -36.33223 37329 ft 515 kts 67°
2026-05-04 20:21 49.87605 -36.22684 37332 ft 514 kts 67°
2026-05-04 20:21 49.90926 -36.06958 37340 ft 513 kts 67°
2026-05-04 20:22 49.93135 -35.96425 37343 ft 512 kts 66°
2026-05-04 20:22 49.95332 -35.85901 37345 ft 512 kts 66°
2026-05-04 20:23 49.97515 -35.75385 37347 ft 511 kts 66°
2026-05-04 20:23 49.99688 -35.64864 37349 ft 510 kts 66°
2026-05-04 20:24 50.01659 -35.55272 37347 ft 509 kts 66°
2026-05-04 20:24 50.03805 -35.44774 37352 ft 508 kts 66°
2026-05-04 20:25 50.05938 -35.34285 37354 ft 508 kts 66°
2026-05-04 20:25 50.08043 -35.23878 37361 ft 507 kts 66°
2026-05-04 20:26 50.10150 -35.13407 37356 ft 506 kts 66°
2026-05-04 20:26 50.12242 -35.02952 37362 ft 505 kts 66°
2026-05-04 20:27 50.14325 -34.92489 37369 ft 505 kts 66°
2026-05-04 20:27 50.16397 -34.82023 37368 ft 504 kts 66°
2026-05-04 20:28 50.18458 -34.71561 37375 ft 504 kts 66°
2026-05-04 20:28 50.20507 -34.61097 37370 ft 504 kts 66°
2026-05-04 20:29 50.22535 -34.50685 37369 ft 504 kts 66°
2026-05-04 20:29 50.24570 -34.40184 37374 ft 504 kts 66°
2026-05-04 20:30 50.26592 -34.29688 37375 ft 504 kts 66°
2026-05-04 20:30 50.28602 -34.19195 37378 ft 504 kts 67°
2026-05-04 20:31 50.30610 -34.08661 37375 ft 504 kts 67°
2026-05-04 20:31 50.32603 -33.98138 37380 ft 505 kts 67°
2026-05-04 20:32 50.34592 -33.87585 37383 ft 505 kts 67°
2026-05-04 20:32 50.36556 -33.77098 37379 ft 505 kts 67°
2026-05-04 20:33 50.38524 -33.66535 37369 ft 505 kts 67°
2026-05-04 20:33 50.40485 -33.55945 37382 ft 505 kts 67°
2026-05-04 20:34 50.42435 -33.45359 37389 ft 505 kts 67°
2026-05-04 20:34 50.44204 -33.35700 37388 ft 505 kts 67°
2026-05-04 20:35 50.46121 -33.25175 37395 ft 505 kts 67°
2026-05-04 20:35 50.48043 -33.14567 37392 ft 504 kts 68°
2026-05-04 20:36 50.49950 -33.03970 37396 ft 504 kts 68°
2026-05-04 20:36 50.51849 -32.93359 37390 ft 504 kts 68°
2026-05-04 20:37 50.53742 -32.82723 37392 ft 504 kts 68°
2026-05-04 20:37 50.55610 -32.72161 37393 ft 504 kts 68°
2026-05-04 20:38 50.57481 -32.61526 37397 ft 504 kts 68°
2026-05-04 20:38 50.59343 -32.50875 37398 ft 504 kts 68°
2026-05-04 20:39 50.61194 -32.40219 37400 ft 505 kts 68°
2026-05-04 20:39 50.63037 -32.29546 37405 ft 505 kts 68°
2026-05-04 20:40 50.64862 -32.18917 37403 ft 506 kts 68°
2026-05-04 20:40 50.66691 -32.08194 37405 ft 506 kts 69°
2026-05-04 20:41 50.68515 -31.97441 37418 ft 507 kts 69°
2026-05-04 20:41 50.70197 -31.87459 37416 ft 507 kts 69°
2026-05-04 20:42 50.71979 -31.76819 37418 ft 508 kts 69°
2026-05-04 20:42 50.73774 -31.66040 37410 ft 508 kts 70°
2026-05-04 20:43 50.75552 -31.55292 37416 ft 508 kts 70°
2026-05-04 20:43 50.77332 -31.44464 37421 ft 509 kts 70°
2026-05-04 20:44 50.79100 -31.33642 37423 ft 508 kts 70°
2026-05-04 20:44 50.80857 -31.22816 37427 ft 508 kts 71°
2026-05-04 20:45 50.82604 -31.11980 37430 ft 508 kts 71°
2026-05-04 20:45 50.84339 -31.01151 37426 ft 508 kts 71°
2026-05-04 20:46 50.86052 -30.90385 37427 ft 507 kts 72°
2026-05-04 20:46 50.87766 -30.79552 37427 ft 507 kts 72°
2026-05-04 20:47 50.89468 -30.68717 37437 ft 506 kts 72°
2026-05-04 20:47 50.91159 -30.57880 37436 ft 506 kts 72°
2026-05-04 20:48 50.92831 -30.47095 37439 ft 506 kts 72°
2026-05-04 20:48 50.94499 -30.36261 37441 ft 505 kts 73°
2026-05-04 20:49 50.96157 -30.25416 37439 ft 505 kts 73°
2026-05-04 20:49 50.97803 -30.14581 37442 ft 505 kts 73°
2026-05-04 20:50 50.99438 -30.03755 37442 ft 505 kts 73°
2026-05-04 20:50 51.00914 -29.93829 37444 ft 505 kts 74°
2026-05-04 20:51 51.02479 -29.82964 37445 ft 505 kts 74°
2026-05-04 20:51 51.04030 -29.72084 37446 ft 505 kts 75°
2026-05-04 20:52 51.05567 -29.61262 37444 ft 505 kts 75°
2026-05-04 20:52 51.07107 -29.50361 37441 ft 505 kts 75°
2026-05-04 20:53 51.08638 -29.39459 37447 ft 505 kts 75°
2026-05-04 20:53 51.10157 -29.28560 37441 ft 505 kts 75°
2026-05-04 20:54 51.11669 -29.17626 37438 ft 505 kts 75°
2026-05-04 20:54 51.12914 -29.08560 37448 ft 505 kts 75°
2026-05-04 20:55 51.14646 -28.95856 37442 ft 505 kts 76°
2026-05-04 20:55 51.15886 -28.86690 37444 ft 505 kts 76°
2026-05-04 20:56 51.17593 -28.73982 37440 ft 505 kts 76°
2026-05-04 20:56 51.18807 -28.64875 37449 ft 505 kts 76°
2026-05-04 20:57 51.20258 -28.53911 37439 ft 505 kts 76°
2026-05-04 20:57 51.21697 -28.42955 37442 ft 505 kts 76°
2026-05-04 20:58 51.23125 -28.31995 37444 ft 504 kts 76°
2026-05-04 20:58 51.24543 -28.21029 37440 ft 504 kts 77°
2026-05-04 20:59 51.25950 -28.10064 37442 ft 504 kts 77°
2026-05-04 20:59 51.27346 -27.99096 37441 ft 504 kts 77°
2026-05-04 21:00 51.28607 -27.89116 37441 ft 503 kts 77°
2026-05-04 21:00 51.29981 -27.78153 37440 ft 503 kts 77°
2026-05-04 21:01 51.31335 -27.67263 37441 ft 503 kts 77°
2026-05-04 21:01 51.32691 -27.56271 37438 ft 503 kts 77°
2026-05-04 21:02 51.34033 -27.45302 37438 ft 502 kts 77°
2026-05-04 21:02 51.35365 -27.34321 37436 ft 502 kts 78°
2026-05-04 21:03 51.36678 -27.23406 37435 ft 502 kts 78°
2026-05-04 21:03 51.37991 -27.12405 37436 ft 502 kts 78°
2026-05-04 21:04 51.39290 -27.01429 37438 ft 501 kts 78°
2026-05-04 21:04 51.40577 -26.90453 37436 ft 501 kts 78°
2026-05-04 21:05 51.41850 -26.79512 37441 ft 501 kts 78°
2026-05-04 21:05 51.43116 -26.68535 37439 ft 501 kts 78°
2026-05-04 21:06 51.44372 -26.57553 37434 ft 501 kts 78°
2026-05-04 21:06 51.45618 -26.46556 37431 ft 501 kts 78°
2026-05-04 21:07 51.46853 -26.35557 37437 ft 501 kts 78°
2026-05-04 21:07 51.48070 -26.24626 37432 ft 500 kts 78°
2026-05-04 21:08 51.49284 -26.13627 37430 ft 500 kts 78°
2026-05-04 21:08 51.50488 -26.02616 37432 ft 500 kts 79°
2026-05-04 21:09 51.51682 -25.91605 37429 ft 500 kts 79°
2026-05-04 21:09 51.52859 -25.80637 37427 ft 500 kts 79°
2026-05-04 21:10 51.54030 -25.69628 37429 ft 500 kts 79°
2026-05-04 21:10 51.55191 -25.58620 37428 ft 500 kts 79°
2026-05-04 21:11 51.56342 -25.47590 37429 ft 500 kts 79°
2026-05-04 21:11 51.57477 -25.36618 37430 ft 500 kts 79°
2026-05-04 21:12 51.58610 -25.25557 37430 ft 500 kts 79°
2026-05-04 21:12 51.59731 -25.14505 37430 ft 500 kts 79°
2026-05-04 21:13 51.60834 -25.03526 37425 ft 500 kts 79°
2026-05-04 21:13 51.61936 -24.92444 37424 ft 500 kts 79°
2026-05-04 21:14 51.63025 -24.81383 37426 ft 500 kts 79°
2026-05-04 21:14 51.64104 -24.70322 37424 ft 500 kts 80°
2026-05-04 21:15 51.65172 -24.59256 37424 ft 500 kts 80°
2026-05-04 21:15 51.66229 -24.48186 37422 ft 500 kts 80°
2026-05-04 21:16 51.67275 -24.37119 37423 ft 500 kts 80°
2026-05-04 21:16 51.68312 -24.26043 37422 ft 500 kts 80°
2026-05-04 21:17 51.69331 -24.15035 37419 ft 499 kts 80°
2026-05-04 21:17 51.70345 -24.03962 37417 ft 499 kts 80°
2026-05-04 21:18 51.71349 -23.92885 37420 ft 499 kts 80°
2026-05-04 21:18 51.72342 -23.81805 37417 ft 499 kts 80°
2026-05-04 21:19 51.73325 -23.70718 37415 ft 498 kts 80°
2026-05-04 21:19 51.74294 -23.59659 37413 ft 498 kts 81°
2026-05-04 21:20 51.75254 -23.48587 37413 ft 498 kts 81°
2026-05-04 21:20 51.76197 -23.37588 37409 ft 497 kts 81°
2026-05-04 21:21 51.77136 -23.26510 37406 ft 497 kts 81°
2026-05-04 21:21 51.78062 -23.15459 37406 ft 497 kts 81°
2026-05-04 21:22 51.78979 -23.04384 37409 ft 496 kts 81°
2026-05-04 21:22 51.79878 -22.93402 37407 ft 496 kts 81°
2026-05-04 21:23 51.80778 -22.82275 37402 ft 496 kts 81°
2026-05-04 21:23 51.81656 -22.71290 37405 ft 496 kts 81°
2026-05-04 21:24 51.82530 -22.60214 37400 ft 496 kts 81°
2026-05-04 21:24 51.83393 -22.49145 37401 ft 495 kts 81°
2026-05-04 21:25 51.84244 -22.38092 37397 ft 495 kts 81°
2026-05-04 21:25 51.85079 -22.27110 37395 ft 495 kts 81°
2026-05-04 21:26 51.85911 -22.16033 37391 ft 495 kts 81°
2026-05-04 21:26 51.86730 -22.04977 37394 ft 495 kts 81°
2026-05-04 21:27 51.87539 -21.93912 37389 ft 494 kts 82°
2026-05-04 21:27 51.88281 -21.83637 37386 ft 494 kts 82°
2026-05-04 21:28 51.89049 -21.72868 37385 ft 494 kts 82°
2026-05-04 21:28 51.89827 -21.61815 37386 ft 494 kts 82°
2026-05-04 21:29 51.90594 -21.50763 37379 ft 494 kts 82°
2026-05-04 21:29 51.91351 -21.39696 37377 ft 494 kts 82°
2026-05-04 21:30 51.92097 -21.28637 37378 ft 494 kts 82°
2026-05-04 21:30 51.92833 -21.17573 37376 ft 493 kts 82°
2026-05-04 21:31 51.93912 -21.01050 37372 ft 493 kts 82°
2026-05-04 21:32 51.94622 -20.89982 37370 ft 493 kts 82°
2026-05-04 21:32 51.95321 -20.78919 37365 ft 493 kts 82°
2026-05-04 21:33 51.96009 -20.67855 37364 ft 493 kts 82°
2026-05-04 21:33 51.96688 -20.56768 37364 ft 493 kts 82°
2026-05-04 21:34 51.97351 -20.45777 37360 ft 493 kts 82°
2026-05-04 21:34 51.98008 -20.34701 37352 ft 493 kts 82°
2026-05-04 21:35 51.98655 -20.23622 37360 ft 492 kts 82°
2026-05-04 21:35 51.99292 -20.12553 37349 ft 492 kts 82°
2026-05-04 21:36 51.99914 -20.01561 37353 ft 492 kts 83°
2026-05-04 21:36 52.00262 -19.90459 37356 ft 492 kts 86°
2026-05-04 21:37 52.00451 -19.79346 37351 ft 492 kts 86°
2026-05-04 21:37 52.00633 -19.68242 37351 ft 492 kts 86°
2026-05-04 21:38 52.00825 -19.57124 37349 ft 492 kts 86°
2026-05-04 21:38 52.01015 -19.46014 37336 ft 492 kts 86°
2026-05-04 21:39 52.01196 -19.34909 37338 ft 492 kts 86°
2026-05-04 21:39 52.01365 -19.23806 37345 ft 492 kts 86°
2026-05-04 21:40 52.01523 -19.12710 37336 ft 492 kts 86°
2026-05-04 21:40 52.01671 -19.01650 37333 ft 492 kts 87°
2026-05-04 21:41 52.01808 -18.90540 37337 ft 492 kts 87°
2026-05-04 21:41 52.01934 -18.79508 37324 ft 492 kts 87°
2026-05-04 21:42 52.02051 -18.68389 37327 ft 492 kts 87°
2026-05-04 21:42 52.02157 -18.57267 37324 ft 492 kts 87°
2026-05-04 21:43 52.02238 -18.48029 37322 ft 492 kts 87°
2026-05-04 21:43 52.02325 -18.36893 37320 ft 493 kts 88°
2026-05-04 21:44 52.02401 -18.25765 37313 ft 493 kts 88°
2026-05-04 21:44 52.02467 -18.14615 37307 ft 493 kts 88°
2026-05-04 21:45 52.02523 -18.03485 37308 ft 493 kts 88°
2026-05-04 21:45 52.02569 -17.92393 37304 ft 493 kts 88°
2026-05-04 21:46 52.02603 -17.81187 37303 ft 493 kts 88°
2026-05-04 21:46 52.02627 -17.70101 37299 ft 494 kts 88°
2026-05-04 21:47 52.02641 -17.58952 37292 ft 494 kts 88°
2026-05-04 21:47 52.02644 -17.47804 37295 ft 494 kts 88°
2026-05-04 21:48 52.02637 -17.36652 37291 ft 493 kts 88°
2026-05-04 21:48 52.02619 -17.25507 37288 ft 493 kts 89°
2026-05-04 21:49 52.02590 -17.14372 37289 ft 493 kts 89°
2026-05-04 21:49 52.02552 -17.03232 37287 ft 493 kts 89°
2026-05-04 21:50 52.02503 -16.92153 37284 ft 493 kts 89°
2026-05-04 21:50 52.02443 -16.81016 37281 ft 493 kts 89°
2026-05-04 21:51 52.02373 -16.69892 37278 ft 492 kts 89°
2026-05-04 21:51 52.02292 -16.58762 37276 ft 492 kts 89°
2026-05-04 21:52 52.02201 -16.47696 37272 ft 492 kts 89°
2026-05-04 21:52 52.02100 -16.36582 37271 ft 492 kts 89°
2026-05-04 21:53 52.01988 -16.25486 37267 ft 492 kts 89°
2026-05-04 21:53 52.01866 -16.14382 37265 ft 491 kts 89°
2026-05-04 21:54 52.01734 -16.03354 37261 ft 491 kts 89°
2026-05-04 21:54 52.01591 -15.92258 37259 ft 491 kts 90°
2026-05-04 21:55 52.01438 -15.81170 37257 ft 491 kts 90°
2026-05-04 21:55 52.01274 -15.70083 37253 ft 491 kts 90°
2026-05-04 21:56 52.01100 -15.58997 37256 ft 491 kts 90°
2026-05-04 21:56 52.00917 -15.47981 37247 ft 492 kts 90°
2026-05-04 21:57 52.00722 -15.36885 37246 ft 491 kts 90°
2026-05-04 21:57 52.00516 -15.25781 37245 ft 492 kts 90°
2026-05-04 21:58 52.00301 -15.14689 37242 ft 492 kts 90°
2026-05-04 21:58 52.00076 -15.03584 37238 ft 492 kts 90°
2026-05-04 21:59 51.99930 -14.92486 37238 ft 491 kts 88°
2026-05-04 21:59 52.00008 -14.81408 37238 ft 491 kts 88°
2026-05-04 22:00 52.00081 -14.70323 37234 ft 491 kts 88°
2026-05-04 22:00 52.00106 -14.59315 37239 ft 491 kts 88°
2026-05-04 22:01 52.00106 -14.48237 37228 ft 491 kts 89°
2026-05-04 22:01 52.00097 -14.37137 37226 ft 491 kts 89°
2026-05-04 22:02 52.00080 -14.26038 37218 ft 491 kts 89°
2026-05-04 22:02 52.00055 -14.15033 37222 ft 491 kts 89°
2026-05-04 22:03 51.99944 -14.03961 37216 ft 491 kts 94°
2026-05-04 22:03 51.98752 -13.93025 37221 ft 493 kts 106°
2026-05-04 22:04 51.96651 -13.82451 37224 ft 493 kts 107°
2026-05-04 22:04 51.94543 -13.71853 37214 ft 493 kts 107°
2026-05-04 22:05 51.92456 -13.61257 37218 ft 493 kts 107°
2026-05-04 22:05 51.90377 -13.50672 37224 ft 493 kts 107°
2026-05-04 22:06 51.88287 -13.40087 37211 ft 493 kts 107°
2026-05-04 22:06 51.86196 -13.29561 37219 ft 493 kts 107°
2026-05-04 22:07 51.84087 -13.19007 37208 ft 493 kts 107°
2026-05-04 22:07 51.81972 -13.08484 37214 ft 492 kts 107°
2026-05-04 22:08 51.79850 -12.97982 37202 ft 491 kts 107°
2026-05-04 22:08 51.77722 -12.87504 37203 ft 491 kts 107°
2026-05-04 22:09 51.75582 -12.77026 37199 ft 490 kts 107°
2026-05-04 22:09 51.73435 -12.66564 37201 ft 490 kts 107°
2026-05-04 22:10 51.71296 -12.56197 37199 ft 489 kts 107°
2026-05-04 22:10 51.69136 -12.45784 37201 ft 489 kts 107°
2026-05-04 22:11 51.66966 -12.35378 37197 ft 489 kts 107°
2026-05-04 22:11 51.64793 -12.25013 37203 ft 488 kts 107°
2026-05-04 22:12 51.62611 -12.14656 37196 ft 488 kts 107°
2026-05-04 22:12 51.60425 -12.04328 37198 ft 487 kts 107°
2026-05-04 22:13 51.58244 -11.94083 37187 ft 487 kts 107°
2026-05-04 22:13 51.56044 -11.83801 37189 ft 486 kts 107°
2026-05-04 22:14 51.53838 -11.73537 37188 ft 485 kts 107°
2026-05-04 22:14 51.51630 -11.63317 37187 ft 484 kts 107°
2026-05-04 22:15 51.49414 -11.53111 37183 ft 484 kts 107°
2026-05-04 22:15 51.47191 -11.42931 37184 ft 483 kts 107°
2026-05-04 22:16 51.46079 -11.37855 37179 ft 483 kts 107°
2026-05-04 22:16 51.42893 -11.23379 37175 ft 482 kts 107°
2026-05-04 22:17 51.40656 -11.13269 37171 ft 481 kts 107°
2026-05-04 22:17 51.38412 -11.03179 37175 ft 480 kts 107°
2026-05-04 22:18 51.36164 -10.93124 37170 ft 480 kts 107°
2026-05-04 22:18 51.33909 -10.83084 37167 ft 479 kts 107°
2026-05-04 22:19 51.31648 -10.73069 37161 ft 478 kts 107°
2026-05-04 22:19 51.29379 -10.63062 37164 ft 478 kts 107°
2026-05-04 22:20 51.27118 -10.53138 37157 ft 477 kts 108°
2026-05-04 22:20 51.24840 -10.43188 37160 ft 477 kts 108°
2026-05-04 22:21 51.22551 -10.33234 37154 ft 477 kts 108°
2026-05-04 22:21 51.20254 -10.23292 37153 ft 477 kts 108°
2026-05-04 22:22 51.17953 -10.13378 37145 ft 477 kts 108°
2026-05-04 22:22 51.15653 -10.03519 37147 ft 478 kts 108°
2026-05-04 22:23 51.13326 -9.93583 37143 ft 478 kts 108°
2026-05-04 22:23 51.10991 -9.83668 37137 ft 479 kts 108°
2026-05-04 22:24 51.08645 -9.73746 37133 ft 479 kts 108°
2026-05-04 22:24 51.06292 -9.63839 37134 ft 479 kts 108°
2026-05-04 22:25 51.03924 -9.53918 37127 ft 480 kts 108°
2026-05-04 22:25 51.01551 -9.44015 37127 ft 479 kts 109°
2026-05-04 22:26 50.99183 -9.34183 37123 ft 479 kts 109°
2026-05-04 22:26 50.96795 -9.24313 37048 ft 478 kts 108°
2026-05-04 22:27 50.94405 -9.14482 37112 ft 476 kts 108°
2026-05-04 22:27 50.92014 -9.04683 37117 ft 475 kts 108°
2026-05-04 22:28 50.89622 -8.94924 37112 ft 475 kts 108°
2026-05-04 22:28 50.87236 -8.85233 37112 ft 474 kts 108°
2026-05-04 22:29 50.84832 -8.75515 37109 ft 474 kts 109°
2026-05-04 22:29 50.82414 -8.65779 37106 ft 474 kts 109°
2026-05-04 22:30 50.79994 -8.56079 37105 ft 474 kts 109°
2026-05-04 22:30 50.77565 -8.46386 37103 ft 474 kts 109°
2026-05-04 22:31 50.75145 -8.36768 37104 ft 474 kts 109°
2026-05-04 22:31 50.72698 -8.27085 37100 ft 474 kts 109°
2026-05-04 22:32 50.70244 -8.17416 37104 ft 475 kts 109°
2026-05-04 22:32 50.67782 -8.07748 37100 ft 475 kts 109°
2026-05-04 22:33 50.65313 -7.98075 37093 ft 475 kts 109°
2026-05-04 22:33 50.63018 -7.88306 37100 ft 475 kts 107°
2026-05-04 22:34 50.60797 -7.78502 37098 ft 475 kts 107°
2026-05-04 22:34 50.58568 -7.68785 37091 ft 475 kts 108°
2026-05-04 22:35 50.56294 -7.59018 37092 ft 475 kts 108°
2026-05-04 22:35 50.54005 -7.49263 37091 ft 476 kts 108°
2026-05-04 22:36 50.51704 -7.39508 37086 ft 476 kts 108°
2026-05-04 22:36 50.49393 -7.29747 37082 ft 476 kts 109°
2026-05-04 22:37 50.47079 -7.20020 37081 ft 476 kts 109°
2026-05-04 22:37 50.44754 -7.10287 37078 ft 476 kts 109°
2026-05-04 22:38 50.42437 -7.00627 37076 ft 476 kts 109°
2026-05-04 22:38 50.40099 -6.90925 37057 ft 476 kts 109°
2026-05-04 22:39 50.37749 -6.81217 37069 ft 476 kts 109°
2026-05-04 22:39 50.35391 -6.71520 37060 ft 476 kts 109°
2026-05-04 22:40 50.33027 -6.61839 37075 ft 476 kts 110°
2026-05-04 22:40 50.30651 -6.52152 37065 ft 477 kts 110°
2026-05-04 22:41 50.28266 -6.42474 37059 ft 477 kts 110°
2026-05-04 22:41 50.25872 -6.32799 37057 ft 477 kts 110°
2026-05-04 22:42 50.23483 -6.23188 37060 ft 477 kts 110°
2026-05-04 22:42 50.21072 -6.13529 37057 ft 477 kts 110°
2026-05-04 22:43 50.18651 -6.03870 37050 ft 477 kts 110°
2026-05-04 22:43 50.16225 -5.94234 37050 ft 477 kts 110°
2026-05-04 22:44 50.13790 -5.84604 37053 ft 477 kts 111°
2026-05-04 22:44 50.11365 -5.75057 37038 ft 477 kts 111°
2026-05-04 22:45 50.08918 -5.65458 37036 ft 477 kts 111°
2026-05-04 22:45 50.05231 -5.51077 37024 ft 476 kts 111°
2026-05-04 22:46 50.02761 -5.41494 37028 ft 476 kts 111°
2026-05-04 22:46 50.00705 -5.33549 37023 ft 476 kts 111°
2026-05-04 22:47 49.97819 -5.22442 37022 ft 476 kts 111°
2026-05-04 22:47 49.95753 -5.14523 37024 ft 476 kts 111°
2026-05-04 22:48 49.93256 -5.04986 37025 ft 475 kts 111°
2026-05-04 22:48 49.90754 -4.95472 37026 ft 475 kts 112°
2026-05-04 22:49 49.88247 -4.85978 37030 ft 475 kts 112°
2026-05-04 22:49 49.85746 -4.76547 37030 ft 476 kts 112°
2026-05-04 22:50 49.83218 -4.67053 37027 ft 476 kts 112°
2026-05-04 22:50 49.80684 -4.57572 37027 ft 477 kts 112°
2026-05-04 22:51 49.78135 -4.48073 37053 ft 482 kts 114°
2026-05-04 22:51 49.75547 -4.38476 37030 ft 489 kts 114°
2026-05-04 22:52 49.72919 -4.28766 37017 ft 489 kts 114°
2026-05-04 22:52 49.70288 -4.19081 37019 ft 488 kts 114°
2026-05-04 22:53 49.67649 -4.09401 37020 ft 488 kts 114°
2026-05-04 22:53 49.65387 -3.99545 37013 ft 489 kts 105°
2026-05-04 22:54 49.64336 -3.89168 37017 ft 490 kts 96°
2026-05-04 22:54 49.63753 -3.78692 37022 ft 490 kts 97°
2026-05-04 22:55 49.63134 -3.68221 37017 ft 490 kts 97°
2026-05-04 22:55 49.62478 -3.57733 37018 ft 491 kts 97°
2026-05-04 22:56 49.61811 -3.47329 37020 ft 491 kts 97°
2026-05-04 22:56 49.61127 -3.36815 37012 ft 492 kts 97°
2026-05-04 22:57 49.60436 -3.26318 37009 ft 492 kts 98°
2026-05-04 22:57 49.59738 -3.15867 37012 ft 493 kts 98°
2026-05-04 22:58 49.59027 -3.05347 37009 ft 493 kts 98°
2026-05-04 22:58 49.58306 -2.94840 37011 ft 494 kts 98°
2026-05-04 22:59 49.57574 -2.84303 37000 ft 494 kts 98°
2026-05-04 22:59 49.56831 -2.73763 36997 ft 494 kts 98°
2026-05-04 23:00 49.56081 -2.63246 36994 ft 494 kts 98°
2026-05-04 23:00 49.55325 -2.52790 36995 ft 494 kts 99°
2026-05-04 23:01 49.54555 -2.42275 36998 ft 494 kts 99°
2026-05-04 23:01 49.53776 -2.31766 36997 ft 494 kts 99°
2026-05-04 23:02 49.52987 -2.21254 36999 ft 494 kts 99°
2026-05-04 23:02 49.52188 -2.10742 37004 ft 494 kts 99°
2026-05-04 23:03 49.51385 -2.00306 37002 ft 494 kts 99°
2026-05-04 23:03 49.50567 -1.89797 37000 ft 494 kts 99°
2026-05-04 23:04 49.49741 -1.79307 36999 ft 494 kts 100°
2026-05-04 23:04 49.48904 -1.68797 36992 ft 495 kts 100°
2026-05-04 23:05 49.48054 -1.58287 36997 ft 495 kts 100°
2026-05-04 23:05 49.47190 -1.47772 37000 ft 495 kts 100°
2026-05-04 23:06 49.46323 -1.37324 36998 ft 495 kts 100°
2026-05-04 23:06 49.45441 -1.26803 36997 ft 495 kts 101°
2026-05-04 23:07 49.44552 -1.16310 36993 ft 495 kts 101°
2026-05-04 23:07 49.43652 -1.05810 36996 ft 495 kts 101°
2026-05-04 23:08 49.42744 -0.95325 36992 ft 495 kts 101°
2026-05-04 23:08 49.41827 -0.84847 36993 ft 495 kts 101°
2026-05-04 23:09 49.40900 -0.74381 36986 ft 494 kts 101°
2026-05-04 23:09 49.39963 -0.63903 36979 ft 494 kts 101°
2026-05-04 23:10 49.39026 -0.53525 36978 ft 494 kts 101°
2026-05-04 23:10 49.38070 -0.43058 36973 ft 494 kts 102°
2026-05-04 23:11 49.37587 -0.37809 36430 ft 503 kts 102°
2026-05-04 23:11 49.37093 -0.32468 35704 ft 505 kts 103°
2026-05-04 23:11 49.36601 -0.27147 34846 ft 505 kts 103°
2026-05-04 23:11 49.36130 -0.21873 33951 ft 491 kts 103°
2026-05-04 23:12 49.35779 -0.16721 32937 ft 480 kts 102°
2026-05-04 23:12 49.35497 -0.11684 32009 ft 468 kts 101°
2026-05-04 23:12 49.35224 -0.06703 31106 ft 472 kts 101°
2026-05-04 23:12 49.34927 -0.01628 30241 ft 484 kts 101°
2026-05-04 23:13 49.34610 0.03520 29499 ft 493 kts 101°
2026-05-04 23:13 49.34280 0.08750 28741 ft 490 kts 101°
2026-05-04 23:13 49.33958 0.13856 28065 ft 485 kts 101°
2026-05-04 23:13 49.33630 0.18998 27379 ft 479 kts 101°
2026-05-04 23:14 49.33302 0.24058 26715 ft 475 kts 101°
2026-05-04 23:14 49.32972 0.29073 26029 ft 471 kts 100°
2026-05-04 23:14 49.32641 0.34060 25380 ft 467 kts 100°
2026-05-04 23:14 49.32313 0.38982 24743 ft 463 kts 99°
2026-05-04 23:15 49.31986 0.43882 24165 ft 458 kts 99°
2026-05-04 23:15 49.31671 0.48593 24007 ft 444 kts 99°
2026-05-04 23:15 49.31419 0.53280 23571 ft 439 kts 96°
2026-05-04 23:15 49.31337 0.57936 23046 ft 435 kts 94°
2026-05-04 23:16 49.31327 0.62556 22530 ft 429 kts 93°
2026-05-04 23:16 49.31327 0.67098 22081 ft 424 kts 93°
2026-05-04 23:16 49.31313 0.71600 21619 ft 420 kts 93°
2026-05-04 23:16 49.31282 0.76062 21164 ft 417 kts 94°
2026-05-04 23:17 49.31238 0.80486 20717 ft 414 kts 94°
2026-05-04 23:17 49.31185 0.84885 20273 ft 411 kts 94°
2026-05-04 23:17 49.31127 0.89193 19845 ft 408 kts 94°
2026-05-04 23:17 49.31066 0.93545 19405 ft 406 kts 94°
2026-05-04 23:18 49.31003 0.97868 18972 ft 404 kts 94°
2026-05-04 23:18 49.30940 1.02169 18531 ft 403 kts 94°
2026-05-04 23:18 49.30875 1.06456 18090 ft 401 kts 93°
2026-05-04 23:18 49.30809 1.10723 17607 ft 399 kts 94°
2026-05-04 23:19 49.30742 1.14969 17147 ft 397 kts 94°
2026-05-04 23:19 49.30675 1.19186 16719 ft 394 kts 93°
2026-05-04 23:19 49.30606 1.23361 16293 ft 391 kts 93°
2026-05-04 23:19 49.30536 1.27483 15882 ft 389 kts 94°
2026-05-04 23:20 49.30465 1.31614 15458 ft 387 kts 93°
2026-05-04 23:20 49.30394 1.35730 15039 ft 384 kts 93°
2026-05-04 23:20 49.30321 1.39808 14631 ft 382 kts 93°
2026-05-04 23:20 49.30246 1.43877 14222 ft 380 kts 93°
2026-05-04 23:21 49.30172 1.47918 13812 ft 378 kts 93°
2026-05-04 23:21 49.30097 1.51936 13363 ft 376 kts 93°
2026-05-04 23:21 49.30020 1.55932 12929 ft 373 kts 93°
2026-05-04 23:21 49.29915 1.59889 12509 ft 370 kts 95°
2026-05-04 23:22 49.29733 1.63794 12108 ft 366 kts 96°
2026-05-04 23:22 49.29543 1.67680 11705 ft 363 kts 96°
2026-05-04 23:22 49.29365 1.71473 11320 ft 357 kts 96°
2026-05-04 23:22 49.28930 1.75098 10908 ft 338 kts 114°
2026-05-04 23:23 49.27656 1.78037 10611 ft 327 kts 135°
2026-05-04 23:23 49.26068 1.80334 10234 ft 302 kts 139°
2026-05-04 23:23 49.24596 1.82468 9894 ft 282 kts 138°
2026-05-04 23:23 49.23226 1.84479 9572 ft 265 kts 138°
2026-05-04 23:24 49.21890 1.86435 9304 ft 270 kts 138°
2026-05-04 23:24 49.20513 1.88445 9044 ft 274 kts 138°
2026-05-04 23:24 49.19133 1.90459 8749 ft 273 kts 138°
2026-05-04 23:24 49.17764 1.92459 8449 ft 271 kts 138°
2026-05-04 23:25 49.16410 1.94436 8170 ft 269 kts 138°
2026-05-04 23:25 49.15524 1.95731 8068 ft 264 kts 138°
2026-05-04 23:25 49.14006 1.97946 7649 ft 264 kts 138°
2026-05-04 23:25 49.12691 1.99865 7360 ft 262 kts 138°
2026-05-04 23:26 49.11538 2.01546 7143 ft 258 kts 138°
2026-05-04 23:26 49.10267 2.03398 6837 ft 256 kts 138°
2026-05-04 23:26 49.08986 2.05263 6533 ft 253 kts 138°
2026-05-04 23:26 49.07721 2.07103 6272 ft 249 kts 138°
2026-05-04 23:27 49.06474 2.08918 5976 ft 246 kts 138°
2026-05-04 23:27 49.05236 2.10716 5691 ft 243 kts 138°
2026-05-04 23:27 49.04043 2.12447 5418 ft 235 kts 138°
2026-05-04 23:27 49.02899 2.14108 5154 ft 218 kts 137°
2026-05-04 23:28 49.01853 2.15625 4928 ft 199 kts 138°
2026-05-04 23:28 49.00914 2.17099 4712 ft 192 kts 126°
2026-05-04 23:28 49.00563 2.19031 4499 ft 194 kts 85°
2026-05-04 23:28 49.00784 2.21065 4342 ft 197 kts 84°
2026-05-04 23:29 49.00905 2.23156 4104 ft 197 kts 86°
2026-05-04 23:29 49.01006 2.25209 3873 ft 193 kts 86°
2026-05-04 23:29 49.01113 2.27254 3636 ft 193 kts 86°
2026-05-04 23:29 49.01223 2.29297 3385 ft 193 kts 86°
2026-05-04 23:30 49.01330 2.31274 3127 ft 184 kts 86°
2026-05-04 23:30 49.01432 2.33175 2899 ft 182 kts 86°
2026-05-04 23:30 49.01536 2.35113 2662 ft 182 kts 85°
2026-05-04 23:30 49.01638 2.37007 2414 ft 178 kts 86°
2026-05-04 23:31 49.01739 2.38885 2176 ft 178 kts 85°
2026-05-04 23:31 49.01840 2.40758 1929 ft 178 kts 85°
2026-05-04 23:31 49.01940 2.42631 1691 ft 173 kts 85°
2026-05-04 23:31 49.02033 2.44358 1438 ft 159 kts 85°
2026-05-04 23:32 49.02120 2.45966 1235 ft 148 kts 85°
2026-05-04 23:32 49.02176 2.47014 1123 ft 147 kts 85°
2026-05-04 23:32 49.02262 2.48582 1009 ft 151 kts 85°
2026-05-04 23:32 49.02386 2.50698 660 ft 148 kts 84°
2026-05-04 23:33 49.02460 2.52229 430 ft 141 kts 84°
2026-05-04 23:33 49.02509 2.53217 367 ft 133 kts 83°
2026-05-04 23:33 49.02575 2.54351 360 ft 75 kts 86°
2026-05-04 23:33 49.02602 2.54883 363 ft 43 kts 85°
2026-05-04 23:34 49.02574 2.55267 368 ft 30 kts 112°
2026-05-04 23:34 49.02518 2.55464 388 ft 10 kts 116°
2026-05-04 23:34 49.02480 2.55580 365 ft 14 kts 126°
2026-05-04 23:34 49.02444 2.55603 367 ft 0 kts 170°
2026-05-04 23:35 49.02442 2.55604 367 ft 2 kts 171°
2026-05-04 23:36 49.02411 2.55610 367 ft 7 kts 173°
2026-05-04 23:36 49.02409 2.55611 366 ft 0 kts 173°
2026-05-04 23:38 49.02404 2.55612 366 ft 3 kts 173°
2026-05-04 23:38 49.02366 2.55618 360 ft 8 kts 174°
2026-05-04 23:38 49.02289 2.55625 365 ft 14 kts 173°
2026-05-04 23:39 49.02177 2.55646 361 ft 18 kts 175°
2026-05-04 23:39 49.02070 2.55556 366 ft 21 kts 256°
2026-05-04 23:39 49.02051 2.55328 360 ft 17 kts 264°
2026-05-04 23:39 49.02043 2.55143 365 ft 20 kts 265°
2026-05-04 23:40 49.02032 2.54949 368 ft 0 kts 265°
2026-05-04 23:40 49.02031 2.54931 367 ft 4 kts 264°
2026-05-04 23:40 49.02009 2.54869 369 ft 9 kts 220°
2026-05-04 23:40 49.01942 2.54846 364 ft 12 kts 176°
2026-05-04 23:41 49.01852 2.54859 365 ft 13 kts 178°
2026-05-04 23:41 49.01745 2.54862 360 ft 18 kts 179°
2026-05-04 23:41 49.01609 2.54881 360 ft 22 kts 173°
2026-05-04 23:41 49.01445 2.54909 362 ft 26 kts 172°
2026-05-04 23:42 49.01259 2.54980 365 ft 26 kts 163°
2026-05-04 23:42 49.01106 2.55039 367 ft 24 kts 166°
2026-05-04 23:42 49.00934 2.55116 368 ft 27 kts 164°
2026-05-04 23:42 49.00765 2.55189 366 ft 18 kts 164°
2026-05-04 23:43 49.00711 2.55318 365 ft 16 kts 85°
2026-05-04 23:43 49.00676 2.55374 367 ft 9 kts 165°
2026-05-04 23:43 49.00601 2.55407 365 ft 14 kts 163°
2026-05-04 23:43 49.00489 2.55457 360 ft 19 kts 163°
2026-05-04 23:44 49.00357 2.55512 363 ft 21 kts 165°
2026-05-04 23:44 49.00216 2.55568 361 ft 23 kts 165°
2026-05-04 23:44 49.00094 2.55638 366 ft 13 kts 136°
2026-05-04 23:44 49.00082 2.55670 365 ft 1 kts 116°
2026-05-04 23:45 49.00072 2.55676 366 ft 2 kts 164°
2026-05-04 23:45 49.00042 2.55671 361 ft 8 kts 185°
2026-05-04 23:45 48.99963 2.55688 367 ft 16 kts 161°
2026-05-04 23:45 48.99962 2.55688 367 ft 16 kts 161°
2026-05-04 23:46 48.99916 2.55776 367 ft 13 kts 110°
2026-05-04 23:46 48.99887 2.55952 366 ft 21 kts 96°
2026-05-04 23:46 48.99902 2.56194 366 ft 27 kts 85°
2026-05-04 23:46 48.99913 2.56489 365 ft 24 kts 85°
2026-05-04 23:47 48.99923 2.56657 361 ft 17 kts 85°
2026-05-04 23:47 48.99934 2.56845 359 ft 19 kts 85°
2026-05-04 23:47 48.99947 2.57056 366 ft 21 kts 85°
2026-05-04 23:47 48.99979 2.57276 368 ft 19 kts 50°
2026-05-04 23:48 49.00038 2.57353 363 ft 11 kts 75°
2026-05-04 23:48 49.00049 2.57479 364 ft 13 kts 85°
2026-05-04 23:48 49.00055 2.57590 360 ft 1 kts 83°
2026-05-04 23:48 49.00061 2.57604 366 ft 2 kts 45°
2026-05-04 23:49 49.00081 2.57618 362 ft 5 kts 22°
2026-05-04 23:49 49.00116 2.57627 363 ft 1 kts 11°
2026-05-04 23:49 49.00125 2.57625 365 ft 3 kts 358°
2026-05-04 23:49 49.00134 2.57625 361 ft 0 kts 358°